Regional Weather Roundup
Issued by NWS Burlington, VT

Home | Current Version | Previous Version | Text Only | Print | Product List | Glossary On
Versions: 1 2 3 4 5 6 7 8 9 10 11 12 13 14 15 16 17 18 19 20 21 22 23 24 25 26 27 28 29 30 31 32 33 34 35 36 37 38 39 40 41 42 43 44 45 46 47 48 49 50
000
ASUS41 KBTV 061230
RWRBTV
VERMONT REGIONAL WEATHER ROUNDUP
NATIONAL WEATHER SERVICE BURLINGTON VT
800 AM EDT WED MAY 06 2015

NOTE: "FAIR" INDICATES FEW OR NO CLOUDS BELOW 12,000 FEET WITH NO
SIGNIFICANT WEATHER AND/OR OBSTRUCTIONS TO VISIBILITY.

* THESE REPORTS ARE NOT UNDER NWS QUALITY CONTROL AND/OR DO NOT
  REPORT WEATHER SUCH AS PRECIPITATION AND FOG.

VTZ001>019-061300-
_____VERMONT_____


CITY           SKY/WX    TMP DP  RH WIND       PRES   REMARKS
BURLINGTON     SUNNY     52  39  61 CALM      30.31S
6HR MIN TEMP:  42; 6HR MAX TEMP:  52;

MONTPELIER     SUNNY     48  38  68 CALM      30.34F
6HR MIN TEMP:  36; 6HR MAX TEMP:  48;

MORRISVILLE    SUNNY     46  38  73 CALM      30.32S
6HR MIN TEMP:  36; 6HR MAX TEMP:  46;

ST. JOHNSBURY*   N/A     45  35  68 MISG      30.30S
6HR MIN TEMP:  37; 6HR MAX TEMP:  45;

LYNDONVILLE*     N/A     49  34  56 CALM      30.31S
6HR MIN TEMP:  39; 6HR MAX TEMP:  46;

MIDDLEBURY*      N/A     56  38  50 CALM      30.32R
6HR MIN TEMP:  39; 6HR MAX TEMP:  54;

RUTLAND*       SUNNY     52  34  50 CALM      30.32S
6HR MIN TEMP:  41; 6HR MAX TEMP:  48;

SPRINGFIELD    MOSUNNY   48  39  71 CALM      30.33S
6HR MIN TEMP:  37; 6HR MAX TEMP:  48;

HIGHGATE*        N/A     55  39  55 S5        30.29S
6HR MIN TEMP:  38; 6HR MAX TEMP:  53;

NEWPORT*         N/A     49  40  69 CALM      30.30R
6HR MIN TEMP:  34; 6HR MAX TEMP:  46;

BENNINGTON     PTSUNNY   57  41  55 CALM      30.31R
6HR MIN TEMP:  46; 6HR MAX TEMP:  57;

MT. MANSFIELD*   N/A     45 N/A N/A CALM        N/A

_____LAKE CHAMPLAIN_____


CITY           SKY/WX    TMP DP  RH WIND       PRES   REMARKS
BURTON ISLAND*   N/A     50  41  71 S8          N/A
COLCHESTER RF*   N/A     45  39  81 S12         N/A
DIAMOND ISL*     N/A     52  41  66 S1          N/A

$$

NYZ007-026>031-035-052-083-061300-
_____NORTHERN NEW YORK_____


CITY           SKY/WX    TMP DP  RH WIND       PRES   REMARKS
PLATTSBURGH    SUNNY     54  41  61 CALM      30.30R
6HR MIN TEMP:  40; 6HR MAX TEMP:  54;

SARANAC LAKE   SUNNY     44  37  76 SW5       30.31R
6HR MIN TEMP:  26; 6HR MAX TEMP:  44; 6HR PCP: TRACE;

MASSENA        SUNNY     52  43  71 SW3       30.31R
6HR MIN TEMP:  36; 6HR MAX TEMP:  52;

OGDENSBURG*    SUNNY     55  48  76 CALM      30.31S
POTSDAM*       SUNNY      3  -4  72 CALM      30.31R
WATERTOWN      SUNNY     50  44  80 CALM      30.31R
6HR MIN TEMP:  34; 6HR MAX TEMP:  50;

FT DRUM        SUNNY     52  43  71 SE5       30.31R
6HR MIN TEMP:  44; 6HR MAX TEMP:  52;

ALBANY         PTSUNNY   59  41  51 N3        30.32R
6HR MIN TEMP:  53; 6HR MAX TEMP:  59;

GLENS FALLS    SUNNY     56  41  57 N3        30.31R
6HR MIN TEMP:  43; 6HR MAX TEMP:  56;


$$
NHZ002-005-011-061300-
_____NEW HAMPSHIRE_____


CITY           SKY/WX    TMP DP  RH WIND       PRES   REMARKS
LEBANON        SUNNY     49  37  63 CALM      30.33R
6HR MIN TEMP:  35; 6HR MAX TEMP:  49;

KEENE          PTSUNNY   52  39  62 CALM      30.33S
6HR MIN TEMP:  41; 6HR MAX TEMP:  48;

MT WASHINGTON  SUNNY     32  23  69 NW36G49     N/A
6HR MIN TEMP:  29; 6HR MAX TEMP:  32;

PLYMOUTH         N/A     48  40  74 CALM      30.31F
6HR MIN TEMP:  35; 6HR MAX TEMP:  46;

WHITEFIELD     SUNNY     45  35  68 CALM      30.30S
6HR MIN TEMP:  31; 6HR MAX TEMP:  45;


$$

_____REGIONAL QUEBEC LOCATIONS_____


CITY           SKY/WX    TMP DP  RH WIND       PRES   REMARKS
MONTREAL       SUNNY     55  41  58 SW6       30.28S
QUEBEC CITY    MOSUNNY   48  39  71 S3        30.24R
SHERBROOKE     SUNNY     45  36  70 CALM      30.27S

_____REGIONAL ONTARIO LOCATIONS_____


CITY           SKY/WX    TMP DP  RH WIND       PRES   REMARKS
OTTAWA         SUNNY     54  39  58 W5        30.30R

______KEY______
VSB  - VISIBILITY IN MILES
WCI  - WIND CHILL INDEX
HX   - HEAT INDEX
$$



USA.gov is the U.S. government's official web portal to all federal, state and local government web resources and services.